Temp
20 17 18 18 20 17 16 15 15 14 14 14 13 13 13 12 12 12 11 11 12 12
19 17 17 18 19 18 17 16 15 14 14 13 13 13 13 12 12 12 11 11 12 12
17 17 16 17 18 18 18 17 15 14 13 13 13 13 12 12 12 11 11 11 12 12
16 16 16 16 18 18 17 17 14 13 13 13 13 12 12 12 12 11 11 11 11 12
15 16 15 16 17 17 16 16 15 14 13 13 12 12 12 12 11 11 11 11 11 11
14 15 14 15 16 16 16 15 15 14 13 12 12 12 11 11 11 11 11 11 11 11
13 13 14 14 15 15 16 15 15 14 13 12 11 12 11 11 11 11 11 11 11 11
13 13 13 13 14 15 14 15 14 13 13 12 11 11 11 11 11 10 10 11 11 11
12 13 13 13 14 14 14 14 13 13 13 12 11 11 11 11 10 10 10 10 10 11
12 12 12 13 13 13 13 13 13 12 12 12 12 11 11 10 10 10 10 10 10 10
12 12 12 12 12 12 13 13 13 13 13 12 12 11 10 10 10 10 10 10 10 10
6 11 12 12 12 12 12 12 13 12 12 12 11 11 10 10 10 10 10 10 9 10
2 6 9 11 12 12 11 9 9 8 8 7 8 10 10 10 10 10 10 9 9 10
0 0 3 6 8 9 8 6 4 4 3 4 5 6 9 10 9 9 7 6 6 6
Height
695 699 702 705 704 706 710 716 721 725 728 733 738 741 746 750 754 757 762 766 770 774
688 693 699 700 700 700 706 712 716 720 724 728 733 737 741 746 750 754 757 761 766 771
681 686 693 695 696 696 700 709 712 716 720 723 728 732 737 742 746 750 754 758 763 767
674 680 687 690 691 693 698 705 708 713 717 719 723 728 732 738 742 746 751 756 759 764
670 676 682 685 687 689 694 702 706 710 713 716 719 723 728 733 738 742 746 751 756 761
667 673 677 680 682 686 693 701 704 706 711 713 715 720 725 730 734 738 741 746 750 756
667 670 673 675 680 684 692 698 702 704 707 709 712 716 722 727 731 735 738 742 746 750
665 667 670 672 676 683 691 696 701 703 706 707 709 714 720 725 729 732 736 739 743 746
663 665 666 669 675 681 689 694 699 701 704 706 708 712 717 723 726 730 734 737 740 744
660 662 664 667 673 679 687 692 696 700 702 704 707 713 717 721 725 729 732 735 739 743
658 660 662 667 671 679 686 691 694 698 701 704 707 713 717 721 725 728 731 734 738 741
658 659 661 665 671 677 683 689 692 695 699 702 706 712 716 721 724 727 731 733 736 739
663 660 660 664 669 675 679 684 689 694 698 702 706 711 715 719 722 725 728 731 734 737
669 668 664 666 669 672 677 684 690 694 700 703 706 710 712 717 719 722 725 729 732 735
Wind_Speed
17 22 26 29 25 29 28 26 26 29 29 29 28 28 30 32 32 33 34 29 30 22
25 24 24 26 23 26 23 22 27 29 27 30 31 27 27 30 31 31 32 30 32 30
27 26 29 24 25 24 25 23 27 28 29 30 28 28 26 26 29 30 30 27 30 30
23 23 25 24 24 24 23 21 24 26 27 27 26 28 25 26 28 31 30 29 28 31
22 22 23 25 24 22 22 20 23 25 26 28 30 29 28 28 28 30 29 30 29 26
21 24 23 17 25 20 20 22 22 24 25 25 26 26 27 29 31 30 31 31 30 32
22 24 23 19 24 23 21 22 20 20 22 24 24 23 27 28 27 27 28 29 33 33
22 23 22 29 25 25 21 23 20 20 20 18 18 21 23 26 27 26 25 26 27 30
20 21 22 27 24 27 23 23 20 19 20 18 16 18 19 21 20 21 22 22 22 26
21 19 18 25 25 22 23 22 21 19 19 18 14 16 18 17 17 19 21 21 23 24
19 19 19 23 22 23 24 21 21 21 18 16 12 13 18 17 13 13 16 19 21 22
13 16 19 21 22 22 22 21 16 15 15 14 13 15 14 15 14 12 12 13 15 17
18 11 17 19 22 20 21 23 22 20 18 17 13 12 15 17 15 14 15 13 13 18
23 20 14 18 22 28 28 27 26 26 21 18 10 6 7 12 14 15 15 12 8 4
Wind_Direction
238 206 219 234 213 185 187 198 204 199 201 207 206 207 208 204 204 203 204 203 201 193
215 221 233 235 234 177 184 198 206 204 197 198 201 207 209 204 205 203 201 200 201 197
211 219 231 233 213 196 189 196 200 200 194 204 207 202 204 206 204 201 197 194 189 183
199 210 225 232 220 186 182 190 181 192 198 195 202 197 204 205 199 197 194 192 186 187
200 207 220 223 207 185 174 190 196 200 203 204 199 200 198 194 195 193 193 197 200 195
198 209 214 221 185 173 176 195 194 193 189 197 199 201 203 202 200 197 196 199 196 196
204 212 214 200 175 174 184 190 187 188 192 188 194 201 205 203 201 200 201 203 205 200
212 214 211 177 168 178 184 186 185 178 184 187 186 192 200 205 204 205 206 209 206 202
205 201 175 168 170 172 184 177 180 175 176 169 171 189 196 202 201 208 206 202 203 209
194 187 174 167 166 170 174 176 174 173 168 164 163 179 180 182 192 202 204 207 212 212
185 190 175 165 156 169 180 176 169 171 169 163 156 177 179 176 178 190 204 208 212 215
20 187 164 161 162 166 170 176 159 149 151 153 144 170 174 179 187 188 191 198 200 209
25 71 132 152 159 163 151 140 128 118 117 124 115 160 179 185 185 175 180 182 199 213
41 34 91 121 130 138 131 125 117 109 95 90 89 80 174 189 187 178 139 129 119 148